De Queen, AR

12:12 PM CST on December 16, 2017 (GMT -0600)
Helms Sevier County

Weather History for KDEQ - August, 2013

Change the Weather History Date:

Saturday, August 3, 2013

  Actual Average Record
Temperature  
Mean Temperature 83 °F 82 °F  
Max Temperature 92 °F 94 °F 111 °F (2011)
Min Temperature 73 °F 69 °F 57 °F (1950)
Degree Days  
Heating Degree Days 0 0  
Month to date heating degree days 0 0  
Since 1 June heating degree days 0 0  
Since 1 July heating degree days 0 0  
Cooling Degree Days 18 16  
Month to date cooling degree days 55 48  
Year to date cooling degree days 1123 1140  
Since 1 June cooling degree days 891 923  
Growing Degree Days 32 (Base 50)    
Moisture  
Dew Point 75 °F    
Average Humidity 80    
Maximum Humidity 100    
Minimum Humidity 59    
Precipitation  
Precipitation 0.00 in 0.07 in 1.22 in (1971)
Month to date precipitation 0.00 0.20  
Year to date precipitation 19.93 29.62  
Snow  
Snow 0.00 in - - ()
Month to date snowfall 0.0  
Since 1 June snowfall 0.0  
Since 1 July snowfall 0.0  
Snow Depth 0.00 in    
Sea Level Pressure  
Sea Level Pressure 29.97 in    
Wind  
Wind Speed 3 mph (East)    
Max Wind Speed 13 mph    
Max Gust Speed 16 mph    
Visibility 5 miles    
Events Fog    
T = Trace of Precipitation, MM = Missing Value Source: NWS Daily Summary

Daily Weather History Graph

Daily Weather History Graph

Search for Another Location

Airport or City:

Trip Planner

Search our weather history database for the weather conditions in past years. The results will help you decide how hot, cold, wet, or windy it might be!

Date:

Astronomy

Aug. 03, 2013 Rise Set
Actual Time 6:30 AM CDT 8:16 PM CDT
Civil Twilight 6:03 AM CDT 8:43 PM CDT
Nautical Twilight 5:30 AM CDT 9:16 PM CDT
Astronomical Twilight 4:55 AM CDT 9:51 PM CDT
Moon 3:42 AM CDT (8/3) 5:58 PM CDT (8/3)
Length of Visible Light 14h 40m
Length of Day
13h 45m
Waning Crescent, 9% of the Moon is Illuminated
Aug 3
Waning Crescent
Aug 6
New
Aug 14
First Quarter
Aug 20
Full
Aug 28
Last Quarter

Hourly Weather History & Observations

Time (CDT) Temp. Heat Index Dew Point Humidity Pressure Visibility Wind Dir Wind Speed Gust Speed Precip Events Conditions
12:53 AM 82.9 °F 90.8 °F 75.9 °F 79% 29.93 in 6.0 mi Calm Calm - N/A   Haze
1:53 AM 78.1 °F - 75.9 °F 93% 29.93 in 4.0 mi Calm Calm - N/A   Clear
2:45 AM 77.0 °F - 75.9 °F 96% 29.94 in 2.0 mi Calm Calm - N/A   Clear
2:53 AM 77.0 °F - 75.9 °F 96% 29.92 in 2.0 mi Calm Calm - N/A   Clear
3:05 AM 75.9 °F - 75.0 °F 97% 29.94 in 0.8 mi Calm Calm - N/A   Clear
3:18 AM 75.9 °F - 75.0 °F 97% 29.93 in 2.0 mi Calm Calm - N/A   Clear
3:53 AM 75.0 °F - 73.9 °F 96% 29.90 in 1.8 mi Calm Calm - N/A   Clear
4:03 AM 75.0 °F - 73.9 °F 96% 29.92 in 2.0 mi Calm Calm - N/A   Clear
4:53 AM 73.9 °F - 73.0 °F 97% 29.91 in 2.5 mi Calm Calm - N/A   Clear
5:09 AM 73.9 °F - 73.0 °F 97% 29.93 in 1.2 mi Calm Calm - N/A   Clear
5:53 AM 73.9 °F - 73.0 °F 97% 29.92 in 1.0 mi Calm Calm - N/A   Clear
6:01 AM 73.0 °F - 72.0 °F 96% 29.94 in 0.5 mi Calm Calm - N/A Fog Fog
6:26 AM 73.9 °F - 73.0 °F 97% 29.96 in 1.2 mi ESE 3.5 mph - N/A   Clear
6:39 AM 73.9 °F - 73.0 °F 97% 29.97 in 2.5 mi Calm Calm - N/A   Clear
6:50 AM 73.4 °F - 73.4 °F 100% 29.97 in 1.2 mi Calm Calm - N/A   Clear
6:53 AM 73.9 °F - 73.0 °F 97% 29.96 in 1.2 mi Calm Calm - N/A   Clear
7:53 AM 75.9 °F - 73.9 °F 94% 29.97 in 2.0 mi Calm Calm - N/A   Clear
8:41 AM 78.1 °F - 75.0 °F 90% 30.01 in 3.0 mi Calm Calm - N/A   Clear
8:53 AM 79.0 °F - 75.9 °F 90% 29.99 in 3.0 mi Calm Calm - N/A   Clear
9:36 AM 82.0 °F 87.4 °F 73.0 °F 74% 30.01 in 6.0 mi Calm Calm - N/A   Haze
9:53 AM 82.9 °F 89.4 °F 73.9 °F 74% 30.01 in 7.0 mi Calm Calm - N/A   Partly Cloudy
10:53 AM 84.9 °F 92.1 °F 73.9 °F 69% 30.03 in 8.0 mi NNE 5.8 mph - N/A   Clear
11:53 AM 89.1 °F 98.0 °F 73.9 °F 61% 30.02 in 9.0 mi NNE 5.8 mph - N/A   Clear
12:53 PM 90.0 °F 100.2 °F 75.0 °F 61% 30.01 in 10.0 mi East 6.9 mph - N/A   Clear
1:53 PM 91.0 °F 101.6 °F 75.0 °F 59% 29.99 in 9.0 mi East 9.2 mph - N/A   Scattered Clouds
2:53 PM 89.1 °F 99.1 °F 75.0 °F 63% 29.99 in 9.0 mi East 10.4 mph - N/A   Clear
3:53 PM 91.0 °F 102.9 °F 75.9 °F 61% 29.98 in 8.0 mi ESE 6.9 mph - N/A   Clear
4:53 PM 91.0 °F 102.9 °F 75.9 °F 61% 29.97 in 8.0 mi SE 8.1 mph - N/A   Clear
5:53 PM 90.0 °F 101.3 °F 75.9 °F 63% 29.96 in 8.0 mi Variable 5.8 mph - N/A   Clear
6:53 PM 89.1 °F 100.2 °F 75.9 °F 65% 29.96 in 8.0 mi SE 3.5 mph - N/A   Clear
7:53 PM 86.0 °F 96.9 °F 77.0 °F 74% 29.96 in 7.0 mi Calm Calm - N/A   Clear
8:53 PM 82.0 °F 90.2 °F 77.0 °F 85% 29.99 in 7.0 mi Calm Calm - N/A   Clear
9:53 PM 80.1 °F 85.4 °F 75.9 °F 87% 30.01 in 6.0 mi ENE 3.5 mph - N/A   Clear
10:53 PM 79.0 °F - 75.0 °F 88% 30.03 in 7.0 mi ENE 3.5 mph - N/A   Clear
11:53 PM 78.1 °F - 75.0 °F 90% 30.03 in 6.0 mi Calm Calm - N/A   Clear